Volver al catálogo

STARLINK-35980

ActivoComunicacionesVLEO
NORAD 66600·PAYLOAD·🇺🇸 United States

Lanzado Nov 22, 2025 desde Cape Canaveral Space Force Station

Loading…

Próximos Pases (próximas 24 horas)

TLE

ActualizadoSource: CelesTrak SupGP

Época: Sep 14, 2026, 21:36 UTC

1 66600C 25270N   26257.90048611  .00050697  00000+0  18367-2 0  2575
2 66600  43.0039  67.9160 0001435 276.3649 303.9064 15.27544959    15

Sigue STARLINK-35980 en tiempo real con AllMySat

Download on the App Store